This demonstration page uses our WeatherBlox Daily Observations layout. Learn more.

39.92423, -83.80882

Hourly Observations for June 5, 2020

Temp ( °F °C ) Dew Point ( °F °C ) Humidity (%) Winds ( mph kmh ) Pressure ( in mb ) Visibility ( mi km ) Precip ( " mm )
12:56 am 00:56 Clear 69 20.6 69 20.6 100 100 Calm 29.85 1011 9 14.48406 0 0
1:56 am 01:56 Clear 69 20.6 69 20.6 100 100 Calm 29.84 1010 8 12.87472 0 0
2:56 am 02:56 Clear with Mist and Fog 68 20 68 20 100 100 W 3 6 29.84 1011 5 8.0467 0 0
3:56 am 03:56 Clear with Mist and Fog 68 20 68 20 100 100 Calm 29.85 1011 3 4.82802 0 0
4:06 am 04:06 Partly Cloudy with Mist and Fog 66 19 66 19 100 100 SSE 3 6 29.85 1011 3 4.82802 0 0
4:14 am 04:14 Mostly Cloudy with Mist and Fog 68 20 68 20 100 100 S 3 6 29.84 1011 3 4.82802 0 0
4:43 am 04:43 Cloudy with Mist and Fog 68 20 68 20 100 100 SSE 6 9 29.84 1011 2.5 4.02335 0 0
4:56 am 04:56 Cloudy with Mist and Fog 68 20 68 20 100 100 S 5 7 29.85 1011 2.5 4.02335 0 0
5:04 am 05:04 Cloudy with Mist and Fog 68 20 68 20 100 100 S 5 7 29.84 1011 3 4.82802 0 0
5:31 am 05:31 Cloudy with Mist and Fog 68 20 68 20 100 100 S 5 7 29.85 1011 2.5 4.02335 0 0
5:56 am 05:56 Cloudy with Mist and Fog 68 20 68 20 100 100 SW 3 6 29.86 1011 3 4.82802 0 0
6:10 am 06:10 Cloudy with Mist and Fog 68 20 68 20 100 100 SW 5 7 29.86 1011 2 3.21868 0 0
6:25 am 06:25 Cloudy with Mist and Fog 68 20 68 20 100 100 Calm 29.86 1011 1.75 2.816345 0 0
6:56 am 06:56 Cloudy with Mist and Fog 69 20.6 69 20.6 100 100 S 5 7 29.87 1012 1.5 2.41401 0 0
7:56 am 07:56 Cloudy with Mist and Fog 69 20.6 69 20.6 100 100 SW 3 6 29.88 1012 1.25 2.011675 0 0
8:13 am 08:13 Cloudy with Mist and Fog 70 21 70 21 100 100 W 6 9 29.87 1011 2 3.21868 0 0
8:33 am 08:33 Cloudy with Mist and Fog 70 21 70 21 100 100 NW 6 9 29.89 1012 1.75 2.816345 0 0
8:41 am 08:41 Cloudy with Mist and Fog 70 21 70 21 100 100 WNW 6 9 29.89 1012 2 3.21868 0 0
8:56 am 08:56 Cloudy with Mist and Fog 70 21.1 70 21.1 100 100 Calm 29.9 1013 2.5 4.02335 0 0
9:04 am 09:04 Cloudy with Mist and Fog 72 22 72 22 100 100 NW 5 7 29.88 1012 3 4.82802 0 0
9:16 am 09:16 Mostly Cloudy with Mist and Fog 72 22 72 22 100 100 NNW 5 7 29.88 1012 4 6.43736 0 0
9:35 am 09:35 Partly Cloudy with Mist and Fog 73 23 72 22 94 94 N 5 7 29.88 1012 5 8.0467 0 0
9:56 am 09:56 Sunny with Mist and Fog 76 24.4 73 22.8 91 91 NW 7 11 29.91 1013 6 9.65604 0 0
10:56 am 10:56 Mostly Sunny 78 25.6 73 22.8 85 85 NW 7 11 29.93 1013 10 16.0934 0 0
11:56 am 11:56 Partly Cloudy 81 27.2 71 21.7 72 72 WNW 3 6 29.9 1012 10 16.0934 0 0
12:56 pm 12:56 Mostly Cloudy 82 27.8 70 21.1 67 67 VRB 7 11 29.9 1013 10 16.0934 0 0
1:56 pm 13:56 Partly Cloudy 83 28.3 70 21.1 65 65 WNW 9 15 29.89 1012 10 16.0934 0 0
2:56 pm 14:56 Partly Cloudy 84 28.9 68 20 59 59 NNW 7 11 29.87 1012 10 16.0934 0 0
3:56 pm 15:56 Mostly Sunny 86 30 66 18.9 51 51 VRB 5 7 29.86 1011 10 16.0934 0 0
4:56 pm 16:56 Partly Cloudy 85 29.4 64 17.8 50 50 NW 6 9 29.86 1011 10 16.0934 0 0
5:56 pm 17:56 Mostly Sunny 87 30.6 65 18.3 48 48 WNW 6 9 29.86 1011 10 16.0934 0 0
6:56 pm 18:56 Sunny 85 29.4 65 18.3 51 51 WNW 6 9 29.85 1011 10 16.0934 0 0
7:56 pm 19:56 Sunny 85 29.4 66 18.9 53 53 NW 3 6 29.86 1011 10 16.0934 0 0
8:56 pm 20:56 Sunny 79 26.1 72 22.2 79 79 Calm 29.88 1012 10 16.0934 0 0
9:56 pm 21:56 Mostly Clear 78 25.6 67 19.4 69 69 Calm 29.9 1013 10 16.0934 0 0
10:56 pm 22:56 Clear 73 22.8 70 21.1 90 90 WSW 5 7 29.92 1013 10 16.0934 0 0
11:56 pm 23:56 Clear 73 22.8 66 18.9 79 79 WSW 5 7 29.92 1013 10 16.0934 0 0

Powered by AerisWeather